This is the latest recevied weather packets stored in our database for station/object K5GTX. If no packets are shown the sender has not sent any weather packets the latest 10 day(s).
| Time | Temp. | Humidity | Pressure | Rain* | Wind** | Luminosity | Snow |
|---|---|---|---|---|---|---|---|
| 1777728938 | 15° C | 99% | 1028 hPa | 0 mm | - | 50 W/m² | - |
| 1777728635 | 14.44° C | 99% | 1028 hPa | 0 mm | - | 45 W/m² | - |
| 1777728332 | 14.44° C | 99% | 1027.9 hPa | 0 mm | - | 43 W/m² | - |
| 1777728029 | 13.89° C | 99% | 1027.9 hPa | 0 mm | - | 43 W/m² | - |
| 1777727726 | 13.89° C | 99% | 1027.8 hPa | 0 mm | - | 42 W/m² | - |
| 1777727423 | 13.89° C | 99% | 1027.7 hPa | 0 mm | - | 39 W/m² | - |
| 1777727120 | 12.78° C | 99% | 1027.8 hPa | 0 mm | - | 38 W/m² | - |
| 1777726818 | 12.78° C | 99% | 1027.7 hPa | 0 mm | - | 35 W/m² | - |
| 1777726514 | 12.22° C | 99% | 1027.4 hPa | 0 mm | - | 33 W/m² | - |
| 1777726212 | 12.22° C | 99% | 1027.4 hPa | 0 mm | - | 32 W/m² | - |
| 1777725908 | 11.67° C | 99% | 1027.5 hPa | 0 mm | - | 31 W/m² | - |
| 1777725606 | 11.67° C | 99% | 1027.1 hPa | 0 mm | - | 29 W/m² | - |
| 1777725303 | 11.11° C | 99% | 1027.3 hPa | 0 mm | - | 28 W/m² | - |
| 1777725000 | 10.56° C | 99% | 1027.2 hPa | 0 mm | - | 24 W/m² | - |
| 1777724696 | 10.56° C | 99% | 1027 hPa | 0 mm | - | 23 W/m² | - |
| 1777724394 | 10° C | 99% | 1027 hPa | 0 mm | - | 21 W/m² | - |
| 1777724091 | 10° C | 99% | 1027 hPa | 0 mm | - | 17 W/m² | - |
| 1777723789 | 10° C | 99% | 1026.9 hPa | 0 mm | - | 15 W/m² | - |
| 1777723485 | 9.44° C | 99% | 1026.8 hPa | 0 mm | - | 13 W/m² | - |
| 1777723182 | 9.44° C | 99% | 1026.6 hPa | 0 mm | - | 10 W/m² | - |
| 1777722879 | 9.44° C | 99% | 1026.5 hPa | 0 mm | - | 6 W/m² | - |
| 1777722575 | 10° C | 99% | 1026.4 hPa | 0 mm | - | 5 W/m² | - |
| 1777722272 | 10° C | 99% | 1026.3 hPa | 0 mm | - | 2 W/m² | - |
| 1777721969 | 10° C | 99% | 1026.1 hPa | 0 mm | - | 1 W/m² | - |
| 1777721667 | 10° C | 99% | 1026.1 hPa | 0 mm | - | 0 W/m² | - |
* Rain latest hour (hover to see other rain measurements)
** Current wind speed in m/s (hover to see current wind gust speed)